[[{"header":{"parameterUnit":"m.s-1","parameterCategory":1,"la1":30.2991,"la2":30.254,"lo1":-89.0895,"lo2":-89.0444,"dy":0.0017,"dx":0.0017,"nx":28,"ny":28,"refTime":"2024-07-05T21:00:00:Z","depth":0,"parameterNumber":2,"parameterNumberName":"U-component_of_WINDS"},"data":[0,0,0,0,0,0,0,0,0,0,0,0,0,0,0,0,0,0,0,0,0,0,0,0,0,0,0,0,0,0,0,0,0,0,0,0,0,0,0,0,0,0,0,0,0,0,0,0,0,0,0,0,0,0,0,0,0,0,3.5689,3.5691,0,3.5873,3.5876,3.5878,3.5859,3.5856,3.5853,3.5851,3.6044,3.6052,3.6059,0,0,0,0,0,0,0,0,0,0,0,0,0,3.5325,3.5332,3.5689,3.5692,3.5694,3.5873,3.5876,3.5878,3.586,3.5856,3.5853,3.5849,3.6042,3.6051,3.606,0,0,0,0,0,0,0,0,0,0,0,0,0,3.5494,3.5334,3.5689,3.5706,3.5709,3.5873,3.5876,3.5879,3.586,3.5856,3.5852,3.5848,3.6038,3.605,3.6061,3.6221,0,0,3.6097,3.6103,0,0,0,0,0,0,0,0,3.5484,3.5507,3.5701,3.5705,3.5709,3.5839,3.5818,3.5994,3.5861,3.5803,3.5851,3.5846,3.598,3.5996,3.604,3.623,3.6238,3.6098,3.6106,3.6111,3.6114,0,0,0,0,0,0,0,3.5473,3.5499,3.5762,3.5704,3.5709,3.5706,3.5725,3.5851,3.5914,3.5808,3.5807,3.5829,3.5981,3.6029,3.6045,3.6241,3.6098,3.6109,3.6116,3.612,3.657,3.6575,0,0,0,0,0,0,3.5456,3.549,3.5756,3.5768,3.5584,3.5716,3.5737,3.5802,3.5912,3.5925,3.5832,3.5827,3.6011,3.6031,3.6051,3.6244,3.6111,3.6122,3.6128,3.6565,3.6571,3.6577,0,0,0,0,0,0,3.5449,3.548,3.5749,3.5629,3.5663,3.5727,3.5799,3.5808,3.5855,3.5931,3.5942,3.587,3.6008,3.6035,3.6178,3.6251,3.6127,3.6138,3.656,3.6567,3.6574,3.6632,0,0,0,0,0,0,3.5438,3.5478,3.5538,3.563,3.5669,3.5872,3.5804,3.5814,3.5875,3.587,3.5968,3.5981,3.6007,3.6161,3.619,3.6265,3.6147,3.6553,3.6563,3.6572,3.6624,3.664,3.6655,0,0,0,0,0,3.5425,3.5548,3.5541,3.5573,3.5746,3.5876,3.5898,3.5925,3.5881,3.5943,3.5991,3.5978,3.6238,3.6176,3.6208,3.6288,3.6549,3.656,3.6571,3.6617,3.6637,3.6654,0,0,0,0,0,0,3.5465,3.5561,3.5554,3.571,3.5785,3.5873,3.5951,3.5945,3.6036,3.6027,3.6058,3.608,3.6225,3.6271,3.6199,3.6448,3.6388,3.6406,3.6412,3.6432,3.6447,3.6432,3.6157,0,0,0,0,0,3.5492,3.5588,3.5667,3.5797,3.5835,3.5887,3.5945,3.5958,3.6038,3.607,3.6128,3.6207,3.6307,3.6372,3.6468,3.6631,3.6652,3.6702,3.6717,3.6729,3.6744,3.6833,3.6856,3.6613,3.6613,3.6612,0,0,3.5548,3.5612,3.5672,3.5807,3.5867,3.5967,3.5914,3.6022,3.6097,3.6087,3.6225,3.6271,3.6361,3.6515,3.6585,3.6558,3.6816,3.6743,3.6752,3.6761,3.6847,3.687,3.689,3.662,3.6619,3.6618,0,0,3.5702,3.5761,3.5875,3.5935,3.6025,3.6059,3.6086,3.6175,3.6204,3.6343,3.6337,3.6428,3.6599,3.6663,3.6718,3.6895,3.6886,3.6926,3.7006,3.7092,3.7111,3.7128,3.7191,3.7213,3.6941,3.6941,3.6941,0,3.5761,3.5911,3.5935,3.6044,3.6104,3.6097,3.6213,3.6271,3.6389,3.6431,3.6398,3.6611,3.6672,3.684,3.6882,3.6928,3.696,3.6915,3.7106,3.7124,3.714,3.72,3.7224,3.6945,3.6945,3.6944,3.6944,0,3.5979,3.6083,3.6164,3.6276,3.6345,3.6457,3.6499,3.6566,3.6574,3.6611,3.6753,3.6825,3.6935,3.6976,3.6985,3.7145,3.7125,3.7099,3.704,3.7167,3.7224,3.7247,3.6951,3.695,3.6948,3.6947,0,0,3.6163,3.6285,3.6315,3.6365,3.6464,3.6545,3.6657,3.6763,3.682,3.6901,3.6996,3.7141,3.7117,3.7179,3.7196,3.7272,3.7407,3.7236,3.7239,3.7265,3.7587,3.7605,3.7631,3.7401,3.7406,3.7409,3.7579,0,3.6326,3.6523,3.6547,3.6723,3.6819,3.6813,3.6911,3.6983,3.7021,3.7109,3.7151,3.7252,3.7214,3.7251,3.7326,3.7374,3.7471,3.7362,3.7491,3.7495,3.7467,3.7661,3.7681,3.7837,3.7601,3.7605,3.7608,0,3.6543,3.6628,3.6812,3.6896,3.6937,3.7025,3.7123,3.7207,3.7288,3.7311,3.738,3.7386,3.7503,3.7439,3.7601,3.7526,3.7581,3.7612,3.7619,3.7631,3.7558,3.7678,3.7888,3.7911,3.7643,3.764,3.7638,0,3.6657,3.6819,3.6949,3.6992,3.7094,3.7155,3.7201,3.7278,3.734,3.7426,3.7466,3.7566,3.7621,3.7699,3.7733,3.7683,3.7892,3.7831,3.7914,3.7913,3.7958,3.7955,3.8179,3.7995,3.7994,3.7994,3.7993,0,3.6836,3.6949,3.7002,3.7082,3.7208,3.7236,3.736,3.7404,3.7472,3.7562,3.7564,3.7648,3.7688,3.7779,3.7807,3.7936,3.7961,3.7983,3.7988,3.7982,3.7979,3.8017,3.8007,3.8,3.7999,3.7997,3.7996,0,3.6986,3.7025,3.7167,3.7251,3.7275,3.7364,3.7437,3.7515,3.7552,3.7665,3.7693,3.7751,3.7858,3.7899,3.8031,3.8049,3.8198,3.8196,3.817,3.8171,3.8251,3.8243,3.8507,3.8543,3.8336,3.8338,3.8339,0,3.7097,3.7183,3.7276,3.7335,3.7382,3.7478,3.754,3.7571,3.7636,3.7734,3.7801,3.7906,3.7992,3.8163,3.8218,3.8318,3.8318,3.8404,3.8333,3.8323,3.8318,3.8312,3.8321,3.8417,3.8419,3.842,3.8422,0,3.729,3.7305,3.7393,3.7489,3.7563,3.764,3.7715,3.7764,3.7806,3.7879,3.7987,3.8054,3.8186,3.8292,3.8394,3.8443,3.844,3.8444,3.8468,3.8462,3.8442,3.8453,3.8204,3.8437,3.8436,3.8435,3.8434,3.8433,3.7423,3.7499,3.7575,3.7674,3.7733,3.7803,3.788,3.7926,3.8016,3.8124,3.8138,3.8253,3.8333,3.847,3.8523,3.8614,3.8592,3.8627,3.8636,3.8644,3.8649,3.8428,3.8633,3.8633,3.8633,3.8632,3.8632,0,3.7615,3.7664,3.7754,3.7858,3.7936,3.7924,3.8007,3.8073,3.8174,3.8247,3.8331,3.8455,3.8556,3.8619,3.8721,3.8783,3.8784,3.8808,3.8804,3.8815,3.8664,3.8632,3.8806,3.8806,3.8805,3.8805,3.8805,3.8805,3.7724,3.7851,3.7875,3.8032,3.808,3.8192,3.824,3.8305,3.8363,3.85,3.8584,3.8623,3.8692,3.8799,3.8892,3.8908,3.8945,3.8972,3.8986,3.8844,3.8826,3.8808,3.8778,3.898,3.898,3.9129,3.913,3.9131]},{"header":{"parameterUnit":"m.s-1","parameterCategory":1,"la1":30.2991,"la2":30.254,"lo1":-89.0895,"lo2":-89.0444,"dy":0.0017,"dx":0.0017,"nx":28,"ny":28,"refTime":"2024-07-05T21:00:00:Z","depth":0,"parameterNumber":3,"parameterNumberName":"V-component_of_WINDS"},"data":[0,0,0,0,0,0,0,0,0,0,0,0,0,0,0,0,0,0,0,0,0,0,0,0,0,0,0,0,0,0,0,0,0,0,0,0,0,0,0,0,0,0,0,0,0,0,0,0,0,0,0,0,0,0,0,0,0,0,0.3632,0.3633,0,0.3719,0.372,0.3721,0.373,0.3729,0.3728,0.3727,0.3819,0.3823,0.3826,0,0,0,0,0,0,0,0,0,0,0,0,0,0.3478,0.3481,0.3632,0.3633,0.3635,0.3719,0.372,0.3721,0.373,0.3729,0.3728,0.3727,0.3818,0.3822,0.3826,0,0,0,0,0,0,0,0,0,0,0,0,0,0.3553,0.3482,0.3632,0.3649,0.3651,0.3718,0.372,0.3721,0.373,0.3729,0.3727,0.3726,0.3817,0.3822,0.3827,0.3884,0,0,0.3842,0.3844,0,0,0,0,0,0,0,0,0.3549,0.3559,0.3645,0.3648,0.3651,0.3712,0.3699,0.3776,0.373,0.37,0.3727,0.3725,0.3785,0.3793,0.3812,0.3889,0.3893,0.3842,0.3845,0.3847,0.3849,0,0,0,0,0,0,0,0.3544,0.3555,0.3667,0.3647,0.365,0.3653,0.3662,0.3714,0.3749,0.3703,0.3704,0.3714,0.3786,0.3807,0.3814,0.3894,0.3842,0.3847,0.385,0.3852,0.4022,0.4024,0,0,0,0,0,0,0.3535,0.3551,0.3664,0.3669,0.3595,0.3657,0.3667,0.3694,0.3749,0.3756,0.3715,0.3714,0.3799,0.3808,0.3817,0.3889,0.3847,0.3852,0.3855,0.4021,0.4022,0.4024,0,0,0,0,0,0,0.3531,0.3545,0.366,0.361,0.3625,0.3661,0.3691,0.3696,0.3717,0.3758,0.3764,0.3729,0.3799,0.381,0.3867,0.3892,0.3854,0.3859,0.4019,0.4021,0.4023,0.4031,0,0,0,0,0,0,0.3527,0.3543,0.3565,0.3611,0.3628,0.3708,0.3692,0.3699,0.3725,0.3725,0.3773,0.378,0.3798,0.386,0.3872,0.3898,0.3863,0.4017,0.402,0.4023,0.4029,0.4034,0.4038,0,0,0,0,0,0.3521,0.3565,0.3566,0.358,0.3655,0.371,0.372,0.3739,0.3727,0.3749,0.3775,0.3778,0.3887,0.3866,0.388,0.3907,0.4015,0.4019,0.4022,0.4027,0.4033,0.4038,0,0,0,0,0,0,0.3523,0.3571,0.3573,0.3632,0.3667,0.3711,0.374,0.3744,0.3784,0.3782,0.3805,0.3816,0.3872,0.3895,0.3871,0.3966,0.395,0.3956,0.3949,0.3955,0.3959,0.3953,0.3867,0,0,0,0,0,0.353,0.3569,0.3609,0.3658,0.3674,0.3704,0.3728,0.374,0.3777,0.3792,0.3822,0.3859,0.3901,0.3929,0.397,0.4032,0.4043,0.4058,0.4062,0.4065,0.4071,0.4106,0.4113,0.4036,0.4036,0.4036,0,0,0.3546,0.3577,0.36,0.3659,0.3687,0.3727,0.3716,0.376,0.3791,0.3799,0.3855,0.3878,0.392,0.398,0.4008,0.4001,0.4095,0.407,0.4072,0.4077,0.411,0.4118,0.4124,0.4038,0.4038,0.4037,0,0,0.3595,0.3622,0.3665,0.3693,0.3734,0.3753,0.3764,0.3807,0.3823,0.3878,0.3885,0.3922,0.3995,0.4025,0.4049,0.4108,0.4113,0.4121,0.4144,0.4178,0.4184,0.4189,0.4211,0.4219,0.4126,0.4126,0.4126,0,0.3609,0.367,0.3687,0.373,0.3756,0.3763,0.3808,0.3835,0.3888,0.3906,0.3897,0.3988,0.4017,0.4084,0.4098,0.4117,0.4131,0.4117,0.4181,0.4187,0.4192,0.4214,0.4222,0.4127,0.4127,0.4127,0.4127,0,0.3686,0.3728,0.3758,0.3808,0.3837,0.3881,0.3906,0.3933,0.3942,0.3962,0.4019,0.4053,0.4102,0.4118,0.4128,0.4186,0.4181,0.4176,0.4161,0.42,0.4221,0.4229,0.4128,0.4128,0.4128,0.4128,0,0,0.3741,0.3798,0.3809,0.3832,0.3878,0.3911,0.3955,0.4001,0.4024,0.4061,0.4099,0.4159,0.4155,0.4183,0.4196,0.4225,0.427,0.4217,0.4218,0.4226,0.4338,0.4342,0.4351,0.4272,0.4274,0.4275,0.4334,0,0.3796,0.3874,0.389,0.3958,0.3997,0.4004,0.4042,0.4075,0.4095,0.4132,0.4154,0.4196,0.4187,0.4204,0.4233,0.4258,0.4293,0.4254,0.431,0.4311,0.43,0.4361,0.4366,0.4421,0.4342,0.4344,0.4345,0,0.3872,0.3908,0.398,0.402,0.4037,0.4071,0.4114,0.4149,0.4186,0.4198,0.4228,0.4238,0.4285,0.4265,0.4331,0.4304,0.4327,0.4343,0.4346,0.4353,0.4332,0.4372,0.4439,0.4447,0.4357,0.4356,0.4355,0,0.3906,0.3973,0.4024,0.4043,0.4091,0.4115,0.4136,0.4172,0.4198,0.4236,0.4253,0.4296,0.4321,0.4354,0.4375,0.4359,0.4439,0.4421,0.4452,0.4451,0.447,0.4469,0.4543,0.4482,0.4482,0.4482,0.4482,0,0.3968,0.4011,0.404,0.4072,0.4121,0.4139,0.4188,0.4209,0.424,0.4277,0.4285,0.4319,0.4344,0.4382,0.4398,0.445,0.4461,0.4473,0.4477,0.4473,0.4472,0.4491,0.4488,0.4484,0.4484,0.4483,0.4483,0,0.4015,0.4036,0.4093,0.4132,0.4143,0.4178,0.4212,0.4244,0.4263,0.4309,0.4321,0.4351,0.4396,0.4419,0.4476,0.4487,0.4546,0.4547,0.4533,0.4535,0.4565,0.4562,0.4655,0.4668,0.4597,0.4598,0.4598,0,0.4054,0.4087,0.413,0.4154,0.4175,0.4215,0.4241,0.426,0.4287,0.4331,0.4358,0.4403,0.444,0.4512,0.454,0.4583,0.4586,0.4615,0.4593,0.4588,0.4588,0.4587,0.459,0.462,0.4621,0.4621,0.4622,0,0.412,0.4128,0.4166,0.4206,0.4237,0.4271,0.4303,0.4323,0.4347,0.4378,0.4423,0.4452,0.4508,0.4554,0.4598,0.4621,0.4626,0.4628,0.4638,0.4635,0.4626,0.4632,0.4546,0.4627,0.4626,0.4626,0.4625,0.4625,0.4166,0.4195,0.423,0.4271,0.4297,0.4328,0.4359,0.4381,0.4419,0.4466,0.4474,0.4523,0.4559,0.4619,0.4643,0.4682,0.4676,0.4689,0.4693,0.4697,0.4699,0.4618,0.469,0.469,0.469,0.469,0.469,0,0.4234,0.4255,0.4293,0.4338,0.437,0.4369,0.4405,0.4433,0.4475,0.4507,0.4543,0.4595,0.4639,0.4669,0.4713,0.4738,0.4742,0.4749,0.4749,0.4754,0.4701,0.4689,0.4746,0.4746,0.4746,0.4746,0.4746,0.4746,0.4273,0.4324,0.4336,0.44,0.4422,0.4468,0.4489,0.4517,0.4543,0.4601,0.4636,0.4655,0.4687,0.4733,0.4773,0.4781,0.4797,0.4805,0.4813,0.4764,0.4758,0.4752,0.4741,0.4808,0.4808,0.4864,0.4864,0.4865]}]]